Location: Hermaringen
(48.5952°N, 10.2585°E)
Time: 23:36:11
(UTC+00:00)

SR - All Passes

Search period start: 16 February 2026 00:00
Search period end: 26 February 2026 00:00
Orbit: 574 x 847 km, 66.7° (Epoch: 15 February)

Date Brightness Start Highest point End Pass type
(mag) Time Alt. Az. Time Alt. Az. Time Alt. Az.
16 Feb - 03:04:17 10° SE 03:06:04 12° ESE 03:07:51 10° E visible
16 Feb - 04:42:42 10° SW 04:46:57 83° NW 04:51:26 10° NE visible
16 Feb - 06:26:21 10° WNW 06:29:21 18° NNW 06:32:28 10° NNE daylight
16 Feb - 09:55:18 10° N 09:57:01 12° NNE 09:58:47 10° NE daylight
16 Feb - 11:35:40 10° NNW 11:40:07 34° NE 11:44:53 10° ESE daylight
16 Feb - 13:17:09 10° NW 13:21:58 48° WSW 13:27:07 10° S daylight
17 Feb - 03:48:07 10° S 03:52:07 43° ESE 03:56:19 10° NE visible
17 Feb - 05:30:09 10° WSW 05:33:55 29° NW 05:37:54 10° NNE visible
17 Feb - 07:16:31 10° NNW 07:17:10 10° NNW 07:17:50 10° N daylight
17 Feb - 10:41:03 10° NNW 10:44:45 21° NE 10:48:38 10° E daylight
17 Feb - 12:22:05 10° NW 12:27:04 86° NE 12:32:27 10° SE daylight
17 Feb - 14:05:01 10° WNW 14:08:13 17° WSW 14:11:33 10° SSW daylight
18 Feb - 02:54:29 10° SSE 02:57:31 19° ESE 03:00:39 10° ENE visible
18 Feb - 04:34:31 10° SW 04:38:43 56° NW 04:43:09 10° NNE visible
18 Feb - 06:18:59 10° WNW 06:21:26 14° NNW 06:23:58 10° N daylight
18 Feb - 09:46:36 10° N 09:49:10 14° NNE 09:51:50 10° ENE daylight
18 Feb - 11:27:15 10° NNW 11:32:00 46° NE 11:37:07 10° ESE daylight
18 Feb - 13:09:06 10° NW 13:13:37 34° WSW 13:18:25 10° S daylight
19 Feb - 03:39:33 10° SSW 03:43:45 67° ESE 03:48:12 10° NE visible
19 Feb - 05:22:27 10° W 05:25:53 22° NW 05:29:29 10° NNE visible
19 Feb - 08:52:44 10° N 08:53:25 10° NNE 08:54:06 10° NNE daylight
19 Feb - 10:32:34 10° NNW 10:36:44 27° NE 10:41:10 10° E daylight
19 Feb - 12:13:50 10° NW 12:18:48 68° WSW 12:24:10 10° SSE daylight
19 Feb - 13:58:15 10° W 13:59:43 11° WSW 14:01:11 10° WSW daylight
20 Feb - 02:45:22 10° S 02:49:02 29° ESE 02:52:52 10° NE visible
20 Feb - 04:26:31 10° WSW 04:30:33 39° NW 04:34:49 10° NNE visible
20 Feb - 06:11:48 10° NW 06:13:34 12° NNW 06:15:22 10° N daylight
20 Feb - 09:38:02 10° N 09:41:16 17° NNE 09:44:39 10° ENE daylight
20 Feb - 11:18:54 10° NNW 11:23:50 64° NE 11:29:10 10° SE daylight
20 Feb - 13:01:11 10° WNW 13:05:12 24° WSW 13:09:26 10° SSW daylight
21 Feb - 01:52:33 10° SE 01:54:33 13° ESE 01:56:34 10° ENE visible
21 Feb - 03:31:12 10° SW 03:35:27 81° NW 03:39:59 10° NE visible
21 Feb - 05:14:54 10° WNW 05:17:54 18° NNW 05:21:01 10° NNE visible
21 Feb - 08:43:41 10° N 08:45:36 12° NNE 08:47:33 10° NE daylight
21 Feb - 10:24:09 10° NNW 10:28:40 35° NE 10:33:32 10° ESE daylight
21 Feb - 12:05:40 10° NW 12:10:30 47° WSW 12:15:41 10° S daylight
22 Feb - 02:36:34 10° S 02:40:36 45° ESE 02:44:52 10° NE visible
22 Feb - 04:18:40 10° WSW 04:22:26 29° NW 04:26:26 10° NNE visible
22 Feb - 06:05:01 10° NNW 06:05:44 10° NNW 06:06:27 10° N daylight
22 Feb - 09:29:30 10° NNW 09:33:18 22° NE 09:37:19 10° E daylight
22 Feb - 11:10:35 10° NW 11:15:37 88° NE 11:21:03 10° SE daylight
22 Feb - 12:53:35 10° WNW 12:56:45 16° WSW 13:00:01 10° SW daylight
23 Feb - 01:42:52 10° SSE 01:46:00 20° ESE 01:49:14 10° ENE visible
23 Feb - 03:23:01 10° SW 03:27:13 54° NW 03:31:41 10° NNE visible
23 Feb - 05:07:31 10° WNW 05:09:59 14° NNW 05:12:30 10° N visible
23 Feb - 08:35:01 10° N 08:37:44 15° NNE 08:40:32 10° ENE daylight
23 Feb - 10:15:44 10° NNW 10:20:33 48° NE 10:25:44 10° ESE daylight
23 Feb - 11:57:36 10° NW 12:02:08 33° WSW 12:06:57 10° S daylight
24 Feb - 02:28:01 10° SSW 02:32:14 70° ESE 02:36:44 10° NE visible
24 Feb - 04:10:58 10° W 04:14:24 22° NW 04:18:01 10° NNE visible
24 Feb - 07:40:55 10° N 07:41:58 11° NNE 07:43:03 10° NNE daylight
24 Feb - 09:21:02 10° NNW 09:25:17 28° NE 09:29:48 10° E daylight
24 Feb - 11:02:20 10° NW 11:07:20 66° WSW 11:12:43 10° SSE daylight
24 Feb - 12:46:57 10° W 12:48:13 11° WSW 12:49:30 10° WSW daylight
25 Feb - 01:33:46 10° S 01:37:30 31° ESE 01:41:25 10° NE visible
25 Feb - 03:15:01 10° WSW 03:19:03 38° NW 03:23:20 10° NNE visible
25 Feb - 05:00:19 10° NW 05:02:06 12° NNW 05:03:55 10° N visible
25 Feb - 08:26:27 10° NNW 08:29:48 18° NNE 08:33:20 10° ENE daylight
25 Feb - 10:07:22 10° NNW 10:12:22 66° NE 10:17:45 10° SE daylight
25 Feb - 11:49:42 10° WNW 11:53:43 23° WSW 11:57:55 10° SSW daylight
